{"data":{"norad_id":67352,"intl_designator":"2026-003U","name":"STARLINK-36479","alt_names":[],"object_type":"PAYLOAD","status":"ACTIVE","operator":null,"country":"US","launch_date":"2026-01-09","launch_site_code":"AFETR","launch_vehicle":null,"mission":null,"orbit_class":"UNKNOWN","rcs_meters":null,"size_class":null,"mass_kg":null,"dimensions":null,"purposes":["comms"],"wikipedia_slug":null,"has_3d_model":false,"image_url":null,"decayed_at":null,"tle_current":{"epoch":"2026-09-19T06:23:12.019776Z","epoch_age_seconds":181928,"freshness":"STALE","line1":"1 67352U 26003U   26262.26611134  .00017561  00000+0  64596-3 0  9998","line2":"2 67352  43.0014 213.4369 0001620 259.5638 100.5031 15.27588756 38434","mean_motion":15.27588756,"eccentricity":0.000162,"inclination_deg":43.0014,"raan_deg":213.4369,"arg_perigee_deg":259.5638,"mean_anomaly_deg":100.5031,"bstar":0.00064596,"rev_number":3843,"period_min":94.26620838521,"perigee_km":481.91136965077,"apogee_km":484.1343854511,"semimajor_km":6861.1598775509,"source":"CELESTRAK","updated_at":"2026-09-20T09:00:43.515203Z"}}}